This is the latest recevied weather packets stored in our database for station/object KC0AFB. If no packets are shown the sender has not sent any weather packets the latest 10 day(s).
| Time | Temp. | Humidity | Pressure | Rain* | Wind** | Luminosity | Snow |
|---|---|---|---|---|---|---|---|
| 1778198913 | 16.67° C | 27% | 1008.5 hPa | 0 mm | - | 108 W/m² | - |
| 1778198609 | 16.67° C | 27% | 1008.5 hPa | 0 mm | - | 164 W/m² | - |
| 1778198306 | 16.67° C | 29% | 1008.7 hPa | 0 mm | - | 180 W/m² | - |
| 1778198004 | 16.11° C | 28% | 1008.8 hPa | 0 mm | - | 186 W/m² | - |
| 1778197700 | 16.11° C | 27% | 1008.6 hPa | 0 mm | - | 170 W/m² | - |
| 1778197397 | 16.67° C | 26% | 1008.7 hPa | 0 mm | - | 213 W/m² | - |
| 1778197093 | 16.67° C | 25% | 1008.8 hPa | 0 mm | - | 215 W/m² | - |
| 1778196791 | 16.67° C | 26% | 1008.7 hPa | 0 mm | - | 243 W/m² | - |
| 1778196489 | 16.67° C | 29% | 1008.6 hPa | 0 mm | - | 260 W/m² | - |
| 1778196185 | 16.67° C | 26% | 1008.8 hPa | 0 mm | - | 274 W/m² | - |
| 1778195882 | 16.67° C | 26% | 1008.7 hPa | 0 mm | - | 308 W/m² | - |
| 1778195579 | 16.67° C | 26% | 1008.7 hPa | 0 mm | - | 317 W/m² | - |
| 1778195275 | 16.67° C | 27% | 1008.6 hPa | 0 mm | - | 323 W/m² | - |
| 1778194973 | 16.67° C | 26% | 1008.6 hPa | 0 mm | - | 334 W/m² | - |
| 1778194672 | 16.67° C | 24% | 1008.8 hPa | 0 mm | - | 353 W/m² | - |
| 1778194369 | 17.22° C | 27% | 1008.7 hPa | 0 mm | - | 366 W/m² | - |
| 1778194065 | 16.67° C | 27% | 1008.7 hPa | 0 mm | - | 383 W/m² | - |
| 1778193762 | 16.67° C | 27% | 1008.8 hPa | 0 mm | - | 368 W/m² | - |
| 1778193458 | 16.67° C | 26% | 1009 hPa | 0 mm | - | 388 W/m² | - |
| 1778193155 | 16.67° C | 28% | 1008.8 hPa | 0 mm | - | 402 W/m² | - |
| 1778192852 | 16.67° C | 27% | 1008.9 hPa | 0 mm | - | 416 W/m² | - |
| 1778192548 | 16.67° C | 26% | 1009 hPa | 0 mm | - | 430 W/m² | - |
| 1778192245 | 16.67° C | 26% | 1008.9 hPa | 0 mm | - | 424 W/m² | - |
| 1778191941 | 16.67° C | 26% | 1008.9 hPa | 0 mm | - | 431 W/m² | - |
| 1778191638 | 16.67° C | 28% | 1009 hPa | 0 mm | - | 453 W/m² | - |
* Rain latest hour (hover to see other rain measurements)
** Current wind speed in m/s (hover to see current wind gust speed)